[[{"header":{"parameterUnit":"m.s-1","parameterCategory":1,"la1":30.2991,"la2":30.254,"lo1":-89.0895,"lo2":-89.0444,"dy":0.0017,"dx":0.0017,"nx":28,"ny":28,"refTime":"2025-07-25T21:00:00:Z","depth":0,"parameterNumber":2,"parameterNumberName":"U-component_of_WINDS"},"data":[0,0,0,0,0,0,0,0,0,0,0,0,0,0,0,0,0,0,0,0,0,0,0,0,0,0,0,0,0,0,0,0,0,0,0,0,0,0,0,0,0,0,0,0,0,0,0,0,0,0,0,0,0,0,0,0,0,0,-1.6258,-1.6257,0,-1.6205,-1.6205,-1.6204,-1.6165,-1.6164,-1.6164,-1.6164,-1.6109,-1.6108,-1.6107,0,0,0,0,0,0,0,0,0,0,0,0,0,-1.6325,-1.6324,-1.6258,-1.6257,-1.6257,-1.6205,-1.6205,-1.6204,-1.6165,-1.6164,-1.6164,-1.6164,-1.611,-1.6108,-1.6107,0,0,0,0,0,0,0,0,0,0,0,0,0,-1.6286,-1.6323,-1.6258,-1.6231,-1.6228,-1.6205,-1.6205,-1.6204,-1.6165,-1.6164,-1.6164,-1.6163,-1.611,-1.6108,-1.6107,-1.6107,0,0,-1.6101,-1.6101,0,0,0,0,0,0,0,0,-1.6289,-1.6284,-1.6236,-1.6233,-1.6229,-1.6191,-1.6208,-1.6171,-1.6165,-1.6189,-1.6164,-1.6163,-1.6137,-1.6133,-1.6124,-1.6104,-1.6102,-1.6101,-1.61,-1.61,-1.6099,0,0,0,0,0,0,0,-1.6291,-1.6286,-1.6237,-1.6235,-1.6231,-1.6221,-1.6215,-1.6201,-1.6166,-1.6187,-1.6184,-1.6178,-1.6135,-1.6126,-1.6123,-1.6101,-1.6101,-1.61,-1.6099,-1.6098,-1.6079,-1.6079,0,0,0,0,0,0,-1.6298,-1.6288,-1.6239,-1.6235,-1.6258,-1.6221,-1.6214,-1.6204,-1.6166,-1.616,-1.6179,-1.6176,-1.6129,-1.6125,-1.612,-1.6118,-1.61,-1.6098,-1.6097,-1.6078,-1.6079,-1.6079,0,0,0,0,0,0,-1.63,-1.6294,-1.6241,-1.6261,-1.6254,-1.622,-1.6209,-1.6203,-1.6194,-1.616,-1.6154,-1.6176,-1.6128,-1.6123,-1.611,-1.6115,-1.6097,-1.6096,-1.6077,-1.6078,-1.6079,-1.6113,0,0,0,0,0,0,-1.6302,-1.6295,-1.6294,-1.6261,-1.6253,-1.6232,-1.6209,-1.6202,-1.6191,-1.6188,-1.6156,-1.615,-1.6128,-1.6113,-1.6109,-1.6113,-1.6094,-1.6077,-1.6078,-1.6079,-1.6111,-1.6115,-1.6118,0,0,0,0,0,-1.6304,-1.6306,-1.6295,-1.6289,-1.6251,-1.6232,-1.6227,-1.6201,-1.6192,-1.6191,-1.617,-1.6151,-1.6116,-1.6112,-1.6107,-1.611,-1.6076,-1.6078,-1.6079,-1.611,-1.6114,-1.6118,0,0,0,0,0,0,-1.634,-1.6301,-1.6288,-1.6279,-1.6259,-1.6225,-1.6224,-1.6207,-1.6189,-1.6187,-1.6156,-1.6149,-1.614,-1.6124,-1.6121,-1.6109,-1.6094,-1.6094,-1.6119,-1.6123,-1.6126,-1.613,-1.6093,0,0,0,0,0,-1.6347,-1.6334,-1.6301,-1.6296,-1.6287,-1.6257,-1.6248,-1.623,-1.6208,-1.62,-1.6177,-1.6157,-1.6141,-1.6131,-1.6115,-1.6109,-1.6101,-1.6109,-1.6112,-1.6115,-1.6115,-1.6111,-1.6114,-1.6083,-1.6083,-1.6083,0,0,-1.636,-1.6338,-1.6332,-1.6303,-1.6285,-1.6273,-1.625,-1.6238,-1.6229,-1.6198,-1.6184,-1.6168,-1.6143,-1.6134,-1.6129,-1.612,-1.6122,-1.6117,-1.6119,-1.6118,-1.6113,-1.6116,-1.6118,-1.6084,-1.6083,-1.6083,0,0,-1.6379,-1.6361,-1.6355,-1.6338,-1.6312,-1.6293,-1.6291,-1.6261,-1.6248,-1.6235,-1.6211,-1.62,-1.6173,-1.6157,-1.6145,-1.6159,-1.6141,-1.6155,-1.6171,-1.6168,-1.617,-1.6172,-1.6177,-1.6179,-1.6155,-1.6155,-1.6155,0,-1.6399,-1.638,-1.6354,-1.6343,-1.6331,-1.6303,-1.6297,-1.6282,-1.6252,-1.6245,-1.6236,-1.6203,-1.6184,-1.6171,-1.6174,-1.6166,-1.6163,-1.6157,-1.6172,-1.6174,-1.6175,-1.6179,-1.6181,-1.6157,-1.6157,-1.6156,-1.6156,0,-1.6406,-1.6394,-1.6392,-1.6364,-1.6352,-1.6344,-1.6316,-1.6308,-1.6291,-1.6273,-1.626,-1.6237,-1.6215,-1.6211,-1.6195,-1.6196,-1.6191,-1.6178,-1.6162,-1.618,-1.6184,-1.6185,-1.6159,-1.6159,-1.6158,-1.6158,0,0,-1.6445,-1.6403,-1.6403,-1.639,-1.636,-1.635,-1.6341,-1.632,-1.6313,-1.6294,-1.6286,-1.6265,-1.6252,-1.6239,-1.6221,-1.6218,-1.623,-1.6204,-1.6203,-1.621,-1.623,-1.624,-1.6242,-1.6219,-1.6219,-1.6219,-1.6232,0,-1.6458,-1.644,-1.6417,-1.6406,-1.6394,-1.6368,-1.636,-1.6341,-1.6324,-1.6311,-1.6292,-1.6278,-1.6262,-1.6254,-1.625,-1.623,-1.6234,-1.6228,-1.621,-1.621,-1.6216,-1.6244,-1.6254,-1.6267,-1.6233,-1.6233,-1.6233,0,-1.6471,-1.6454,-1.6443,-1.6414,-1.6409,-1.6402,-1.6381,-1.637,-1.6348,-1.6336,-1.6321,-1.6302,-1.6291,-1.6278,-1.6263,-1.626,-1.6251,-1.624,-1.624,-1.6236,-1.6222,-1.6241,-1.627,-1.6272,-1.6235,-1.6235,-1.6235,0,-1.65,-1.6474,-1.6464,-1.6454,-1.6421,-1.6417,-1.6403,-1.638,-1.637,-1.6352,-1.6345,-1.6326,-1.6316,-1.6302,-1.6279,-1.6271,-1.6266,-1.6251,-1.6255,-1.6256,-1.6254,-1.6255,-1.6283,-1.625,-1.625,-1.625,-1.625,0,-1.6518,-1.6512,-1.6477,-1.647,-1.6463,-1.6437,-1.643,-1.6414,-1.6394,-1.6384,-1.6361,-1.6352,-1.6322,-1.6309,-1.6291,-1.6281,-1.6277,-1.6266,-1.6261,-1.6268,-1.6269,-1.6261,-1.626,-1.6251,-1.625,-1.625,-1.625,0,-1.6548,-1.6524,-1.6512,-1.6482,-1.6474,-1.647,-1.6444,-1.6437,-1.6419,-1.6407,-1.6403,-1.6374,-1.6359,-1.6334,-1.6311,-1.6299,-1.6292,-1.6284,-1.63,-1.6296,-1.6302,-1.6302,-1.6326,-1.6327,-1.6294,-1.6295,-1.6295,0,-1.6561,-1.6555,-1.6525,-1.6517,-1.6504,-1.6491,-1.648,-1.6454,-1.6444,-1.6419,-1.6415,-1.6398,-1.6383,-1.636,-1.6337,-1.6319,-1.631,-1.632,-1.6308,-1.6315,-1.631,-1.6311,-1.631,-1.6323,-1.6323,-1.6323,-1.6324,0,-1.6585,-1.6574,-1.6559,-1.6541,-1.6529,-1.6513,-1.6496,-1.6491,-1.6461,-1.6451,-1.6435,-1.6423,-1.6401,-1.6384,-1.6363,-1.6349,-1.6331,-1.6328,-1.6328,-1.6335,-1.6344,-1.6339,-1.6307,-1.6327,-1.6327,-1.6327,-1.6327,-1.6326,-1.6606,-1.6601,-1.6579,-1.6563,-1.6548,-1.6533,-1.6525,-1.6506,-1.6493,-1.6472,-1.6458,-1.6443,-1.6422,-1.6392,-1.6379,-1.6367,-1.6359,-1.636,-1.6359,-1.636,-1.6362,-1.6346,-1.6363,-1.6363,-1.6363,-1.6363,-1.6363,0,-1.6629,-1.6614,-1.66,-1.6578,-1.6566,-1.6551,-1.6532,-1.6523,-1.651,-1.6492,-1.6478,-1.646,-1.6444,-1.642,-1.6402,-1.6397,-1.6389,-1.6393,-1.6393,-1.639,-1.637,-1.6372,-1.64,-1.64,-1.64,-1.64,-1.64,-1.64,-1.664,-1.663,-1.6616,-1.6598,-1.6582,-1.6568,-1.6558,-1.6544,-1.653,-1.6511,-1.6497,-1.6482,-1.6462,-1.6442,-1.6427,-1.6421,-1.6415,-1.6422,-1.6413,-1.6395,-1.6391,-1.6388,-1.6389,-1.6421,-1.6421,-1.6434,-1.6434,-1.6434]},{"header":{"parameterUnit":"m.s-1","parameterCategory":1,"la1":30.2991,"la2":30.254,"lo1":-89.0895,"lo2":-89.0444,"dy":0.0017,"dx":0.0017,"nx":28,"ny":28,"refTime":"2025-07-25T21:00:00:Z","depth":0,"parameterNumber":3,"parameterNumberName":"V-component_of_WINDS"},"data":[0,0,0,0,0,0,0,0,0,0,0,0,0,0,0,0,0,0,0,0,0,0,0,0,0,0,0,0,0,0,0,0,0,0,0,0,0,0,0,0,0,0,0,0,0,0,0,0,0,0,0,0,0,0,0,0,0,0,4.4253,4.4253,0,4.4236,4.4235,4.4235,4.4169,4.4168,4.4166,4.4165,4.4148,4.4149,4.415,0,0,0,0,0,0,0,0,0,0,0,0,0,4.4231,4.4232,4.4253,4.4253,4.4253,4.4236,4.4235,4.4235,4.4169,4.4167,4.4166,4.4164,4.4148,4.4149,4.415,0,0,0,0,0,0,0,0,0,0,0,0,0,4.423,4.4232,4.4253,4.4218,4.4215,4.4236,4.4235,4.4235,4.417,4.4167,4.4165,4.4163,4.4147,4.4149,4.415,4.4204,0,0,4.4154,4.4155,0,0,0,0,0,0,0,0,4.423,4.4231,4.4223,4.422,4.4217,4.4202,4.4221,4.4225,4.417,4.4187,4.4165,4.4162,4.4168,4.4168,4.4169,4.4204,4.4203,4.4155,4.4155,4.4156,4.4157,0,0,0,0,0,0,0,4.423,4.4231,4.4246,4.4223,4.4219,4.4203,4.4201,4.4222,4.419,4.4185,4.418,4.4179,4.4166,4.4168,4.4168,4.4203,4.4155,4.4156,4.4157,4.4157,4.428,4.4282,0,0,0,0,0,0,4.4235,4.4232,4.4247,4.4246,4.4218,4.4205,4.4202,4.4209,4.419,4.4185,4.4181,4.4176,4.4167,4.4167,4.4168,4.4229,4.4156,4.4157,4.4158,4.4277,4.428,4.4283,0,0,0,0,0,0,4.4235,4.4237,4.4248,4.4237,4.4237,4.4208,4.4216,4.421,4.4212,4.4187,4.4181,4.4189,4.4165,4.4165,4.4195,4.4228,4.4158,4.4159,4.4275,4.4278,4.4282,4.4353,0,0,0,0,0,0,4.4235,4.4237,4.4258,4.4238,4.4238,4.4276,4.4218,4.4211,4.4215,4.4208,4.4193,4.4188,4.4163,4.4194,4.4197,4.4228,4.4161,4.4272,4.4276,4.4281,4.4348,4.4359,4.4368,0,0,0,0,0,4.4234,4.4279,4.4259,4.4261,4.4263,4.4278,4.4278,4.4248,4.4218,4.4238,4.4221,4.4189,4.4224,4.4197,4.42,4.4233,4.4269,4.4275,4.428,4.4343,4.4357,4.4368,0,0,0,0,0,0,4.4303,4.4276,4.4253,4.4293,4.4288,4.4266,4.4291,4.4263,4.4267,4.426,4.4223,4.422,4.4256,4.4247,4.4218,4.4284,4.4241,4.4247,4.4288,4.43,4.431,4.4311,4.4162,0,0,0,0,0,4.4323,4.4337,4.4313,4.435,4.4349,4.4321,4.4326,4.4303,4.4297,4.4294,4.428,4.4275,4.4285,4.4292,4.43,4.4346,4.4342,4.437,4.438,4.4389,4.4395,4.4418,4.443,4.4301,4.4301,4.43,0,0,4.4365,4.4351,4.4363,4.4364,4.4357,4.4373,4.4319,4.4338,4.4349,4.4297,4.4324,4.4314,4.4306,4.4344,4.436,4.4338,4.4429,4.4396,4.4403,4.4404,4.4425,4.4437,4.4448,4.4304,4.4304,4.4303,0,0,4.4448,4.4439,4.4469,4.4464,4.4454,4.4435,4.4442,4.4425,4.4415,4.4442,4.4403,4.4416,4.4434,4.443,4.443,4.4511,4.4481,4.4515,4.4568,4.4591,4.4601,4.461,4.4638,4.4649,4.4521,4.4521,4.4521,0,4.4501,4.4522,4.4488,4.4509,4.4511,4.4464,4.4494,4.4491,4.4485,4.4487,4.4462,4.4483,4.4475,4.4511,4.4531,4.4533,4.454,4.4516,4.4602,4.4611,4.4618,4.4645,4.4656,4.4525,4.4525,4.4524,4.4524,0,4.4587,4.4602,4.4628,4.4622,4.4626,4.4652,4.4623,4.4631,4.4608,4.4592,4.4619,4.4608,4.4612,4.4619,4.4597,4.4652,4.4638,4.4609,4.4565,4.4635,4.466,4.467,4.4531,4.4529,4.4528,4.4527,0,0,4.4713,4.4688,4.4698,4.4694,4.468,4.4692,4.4715,4.4719,4.4726,4.4724,4.4743,4.4759,4.4731,4.4731,4.4708,4.4729,4.4793,4.4696,4.4695,4.4714,4.4852,4.4874,4.4887,4.4773,4.4775,4.4776,4.4853,0,4.4792,4.4829,4.48,4.4843,4.4857,4.4812,4.4833,4.4826,4.4812,4.4821,4.4805,4.4817,4.4779,4.4779,4.4798,4.4781,4.482,4.4775,4.479,4.4791,4.4792,4.4899,4.4923,4.4995,4.4862,4.4864,4.4865,0,4.4888,4.4889,4.4933,4.4915,4.492,4.4939,4.4939,4.4949,4.4941,4.4929,4.4929,4.4901,4.4922,4.488,4.4909,4.488,4.4884,4.4877,4.4879,4.4879,4.4832,4.4901,4.5018,4.5028,4.488,4.4878,4.4877,0,4.4975,4.4987,4.5015,4.5013,4.4994,4.5008,4.5,4.499,4.4994,4.4994,4.4996,4.5,4.5002,4.5005,4.4979,4.495,4.5012,4.4967,4.5002,4.5003,4.5016,4.5016,4.5134,4.5021,4.5021,4.502,4.502,0,4.5065,4.5094,4.5053,4.5071,4.5101,4.5067,4.5099,4.5087,4.5078,4.5092,4.5055,4.5069,4.5033,4.5044,4.5023,4.505,4.5052,4.5042,4.5037,4.5045,4.5047,4.5047,4.5041,4.5023,4.5023,4.5022,4.5021,0,4.5167,4.5141,4.5168,4.5147,4.5142,4.5166,4.5148,4.5163,4.5146,4.5164,4.5166,4.5139,4.515,4.5124,4.5131,4.5117,4.5156,4.5142,4.5158,4.5154,4.519,4.5187,4.5313,4.5327,4.5205,4.5206,4.5207,0,4.5226,4.5247,4.5228,4.5234,4.5228,4.5239,4.5242,4.521,4.5215,4.5207,4.5223,4.523,4.5234,4.5253,4.5234,4.5239,4.5225,4.5269,4.5226,4.5234,4.5225,4.5224,4.5225,4.5278,4.5279,4.528,4.5281,0,4.5333,4.5319,4.5325,4.5327,4.5331,4.5331,4.5328,4.5336,4.5301,4.5309,4.5318,4.5321,4.5328,4.5335,4.5336,4.5329,4.5299,4.5295,4.5303,4.5312,4.5321,4.5316,4.5182,4.5292,4.5291,4.529,4.529,4.5289,4.5415,4.5431,4.542,4.5427,4.5422,4.542,4.5433,4.5416,4.5424,4.5426,4.5406,4.542,4.5411,4.5409,4.5405,4.5415,4.5395,4.5407,4.541,4.5414,4.5419,4.5319,4.5415,4.5415,4.5415,4.5414,4.5414,0,4.552,4.551,4.5517,4.5514,4.552,4.5491,4.5487,4.5494,4.5506,4.55,4.5504,4.5515,4.5522,4.5504,4.5508,4.552,4.5507,4.5522,4.5521,4.5519,4.5437,4.5429,4.5533,4.5533,4.5533,4.5533,4.5533,4.5533,4.5575,4.56,4.5585,4.5607,4.5597,4.561,4.561,4.5608,4.5602,4.5616,4.5621,4.5609,4.5598,4.5601,4.5606,4.5601,4.5604,4.5624,4.5614,4.5537,4.5525,4.5514,4.5507,4.5625,4.5625,4.5695,4.5695,4.5696]}]]